BMCB-19 Weather Reports


time (UTC)temp
F
wind
direction
speed
knots
gust
knots
rain 1hr
in
rain 24hr
in
rain mn
in
humidity
%
barometer
mb
20260506194004 50 0 0.0 0.0 0.00 0.36 0.29 84 1012.4
20260506193005 50 0 0.0 0.0 0.00 0.37 0.29 85 1012.3
20260506190006 50 0 0.0 0.0 0.00 0.37 0.29 85 1011.9
20260506185005 50 0 0.0 0.0 0.00 0.39 0.29 86 1011.8
20260506184004 50 0 0.0 0.0 0.00 0.39 0.29 85 1011.7
20260506183006 50 0 0.0 0.0 0.00 0.39 0.29 85 1011.6
20260506180004 51 0 0.0 0.0 0.00 0.40 0.29 86 1011.2
20260506175003 51 0 0.0 0.0 0.00 0.41 0.29 87 1011.1
20260506171004 51 0 0.0 0.0 0.00 0.43 0.29 90 1010.8
20260506170004 51 0 0.0 0.0 0.00 0.43 0.29 90 1010.7
20260506164004 51 0 0.0 0.0 0.00 0.43 0.29 89 1010.6
20260506161003 51 0 0.0 0.0 0.00 0.43 0.29 87 1010.7
20260506160004 51 0 0.0 0.0 0.00 0.43 0.29 86 1010.7
20260506155004 51 0 0.0 0.0 0.00 0.43 0.29 86 1010.7
20260506154003 51 0 0.0 0.0 0.00 0.43 0.29 85 1010.7
20260506153003 51 0 0.0 0.0 0.00 0.43 0.29 84 1010.6
20260506152003 52 0 0.0 0.0 0.00 0.43 0.29 84 1010.6
20260506151005 52 0 0.0 0.0 0.00 0.43 0.29 84 1010.6
20260506150003 52 0 0.0 0.0 0.00 0.43 0.29 83 1010.5
20260506145005 52 0 0.0 0.0 0.00 0.43 0.29 85 1010.5
20260506144010 51 0 0.0 0.0 0.00 0.43 0.29 86 1010.5
20260506143005 51 0 0.0 0.0 0.00 0.43 0.29 87 1010.6
20260506142005 51 0 0.0 0.0 0.00 0.43 0.29 87 1010.6
20260506141005 51 0 0.0 0.0 0.00 0.43 0.29 86 1010.6
20260506135004 51 0 0.0 0.0 0.00 0.43 0.29 88 1010.6
20260506132003 51 0 0.0 0.0 0.00 0.43 0.29 84 1010.6
20260506131004 51 0 0.0 0.0 0.00 0.43 0.29 84 1010.5
20260506130004 51 0 0.0 0.0 0.00 0.43 0.29 85 1010.4
20260506123003 51 0 0.0 0.0 0.00 0.43 0.29 84 1010.2
20260506122004 51 0 0.0 0.0 0.00 0.43 0.29 83 1010.1
20260506121009 51 0 0.0 0.0 0.00 0.43 0.29 84 1010.1
20260506120004 51 0 0.0 0.0 0.00 0.43 0.29 86 1010.0
20260506115007 51 0 0.0 0.0 0.00 0.43 0.29 86 1010.1
20260506113007 50 0 0.0 0.0 0.01 0.43 0.29 92 1010.1
20260506112008 49 0 0.0 0.0 0.01 0.43 0.29 93 1010.1
20260506105004 47 0 0.0 0.0 0.01 0.43 0.29 95 1010.3
20260506104004 47 0 0.0 0.0 0.01 0.43 0.29 95 1010.4
20260506103004 47 0 0.0 0.0 0.00 0.42 0.28 95 1010.3
20260506101004 47 0 0.0 0.0 0.01 0.42 0.28 95 1010.2
20260506100004 46 0 0.0 0.0 0.01 0.42 0.28 95 1010.2
20260506095007 47 0 0.0 0.0 0.02 0.42 0.28 95 1010.0
20260506094004 47 0 0.0 0.0 0.02 0.42 0.28 95 1010.0
20260506093007 46 0 0.0 0.0 0.02 0.42 0.28 95 1010.0
20260506092004 46 0 0.0 0.0 0.02 0.42 0.28 95 1009.9
20260506091004 46 0 0.0 0.0 0.02 0.42 0.28 95 1009.8
20260506090004 46 0 0.0 0.0 0.02 0.41 0.28 95 1009.8
20260506085005 46 0 0.0 0.0 0.02 0.41 0.28 96 1009.7
20260506084005 46 0 0.0 0.0 0.01 0.40 0.27 96 1009.6
20260506083005 46 0 0.0 0.0 0.01 0.41 0.27 96 1009.5
20260506082004 46 0 0.0 0.0 0.00 0.40 0.26 96 1009.4
20260506081004 46 0 0.0 0.0 0.00 0.40 0.26 96 1009.4
20260506073004 45 0 0.0 0.0 0.01 0.40 0.26 96 1009.1
20260506072005 45 0 0.0 0.0 0.02 0.40 0.26 96 1009.0
20260506071005 45 0 0.0 0.0 0.02 0.40 0.26 96 1009.0
20260506062008 45 0 0.0 0.0 0.05 0.39 0.25 96 1008.9
20260506061005 45 0 0.0 0.0 0.05 0.39 0.24 96 1008.9
20260506045005 45 0 0.0 0.0 0.05 0.33 0.19 96 1008.8
20260506044008 45 0 0.0 0.0 0.05 0.32 0.18 96 1008.7
20260506043005 45 0 0.0 0.0 0.05 0.31 0.17 96 1008.7
20260506042005 45 0 0.0 0.0 0.05 0.31 0.17 96 1008.7
20260506041005 45 0 0.0 0.0 0.04 0.31 0.17 96 1008.6
20260506035005 45 0 0.0 0.0 0.03 0.32 0.16 96 1008.7
20260506034006 45 0 0.0 0.0 0.02 0.31 0.14 96 1008.7
20260506033011 45 0 0.0 0.0 0.02 0.30 0.13 96 1008.8
20260506032010 45 0 0.0 0.0 0.01 0.29 0.13 96 1008.8
20260506030008 46 0 0.0 0.0 0.02 0.29 0.13 96 1008.8
20260506023005 46 0 0.0 0.0 0.03 0.29 0.13 96 1008.8
20260506022005 46 0 0.0 0.0 0.02 0.28 0.12 96 1008.9
20260506021005 46 0 0.0 0.0 0.03 0.28 0.12 96 1008.8
20260506020005 46 0 0.0 0.0 0.02 0.28 0.11 96 1008.8
20260506015006 47 0 0.0 0.0 0.03 0.28 0.11 96 1008.8
20260506014005 47 0 0.0 0.0 0.02 0.27 0.10 96 1008.8
20260506013006 47 0 0.0 0.0 0.03 0.27 0.10 96 1008.9
20260506012005 47 0 0.0 0.0 0.03 0.26 0.09 96 1008.9
20260506011006 47 0 0.0 0.0 0.04 0.26 0.09 96 1008.9
20260506010005 47 0 0.0 0.0 0.04 0.25 0.09 96 1008.9
20260506005008 47 0 0.0 0.0 0.05 0.25 0.09 96 1009.0
20260506004010 47 0 0.0 0.0 0.04 0.24 0.08 96 1009.0
20260506003008 47 0 0.0 0.0 0.05 0.24 0.08 96 1009.1
20260506001005 47 0 0.0 0.0 0.04 0.23 0.06 96 1009.2
20260506000008 47 0 0.0 0.0 0.04 0.22 0.06 96 1009.2
20260505233012 47 0 0.0 0.0 0.03 0.20 0.04 96 1009.4
20260505232010 47 0 0.0 0.0 0.03 0.20 0.03 96 1009.5
20260505230014 47 0 0.0 0.0 0.02 0.19 0.02 96 1009.5
20260505225010 48 0 0.0 0.0 0.02 0.18 0.02 96 1009.6
20260505222010 48 0 0.0 0.0 0.03 0.17 0.01 96 1009.5
20260505215017 48 0 0.0 0.0 0.04 0.17 0.17 96 1009.7
20260505214009 48 0 0.0 0.0 0.04 0.16 0.16 96 1009.7
20260505213011 48 0 0.0 0.0 0.05 0.15 0.15 96 1009.7
20260505211009 48 0 0.0 0.0 0.04 0.14 0.14 96 1009.8
20260505210010 48 0 0.0 0.0 0.03 0.13 0.13 96 1009.8
20260505205013 48 0 0.0 0.0 0.04 0.13 0.13 96 1009.9
20260505204015 48 0 0.0 0.0 0.03 0.13 0.13 97 1009.9
20260505203013 48 0 0.0 0.0 0.03 0.12 0.12 97 1009.9
20260505201014 48 0 0.0 0.0 0.02 0.10 0.10 97 1009.8
20260505200010 48 0 0.0 0.0 0.02 0.10 0.10 97 1009.8
20260505195010 49 0 0.0 0.0 0.02 0.10 0.10 97 1009.7